Precipitable_Water
0.90 1.00 1.09 1.09 1.16 1.16 1.14 1.09 1.11 1.07 0.97 0.92 0.98 0.93 0.83 0.74 0.70 0.65 0.53 0.63 0.63 0.66 0.73 0.70 0.61 0.58 0.56 0.51 0.58 0.60 0.37 0.28 0.29 0.30 0.31 0.36 0.42 0.59 0.61 0.65 0.66 0.72 0.74 0.99 1.14
0.84 0.87 0.99 1.03 1.14 1.17 1.11 1.07 1.05 1.04 0.98 0.90 0.94 0.88 0.83 0.74 0.59 0.50 0.58 0.59 0.69 0.76 0.69 0.58 0.50 0.51 0.45 0.46 0.49 0.45 0.32 0.28 0.35 0.36 0.34 0.35 0.38 0.44 0.48 0.62 0.56 0.69 0.76 1.02 1.10
0.64 0.78 0.91 0.96 1.03 1.11 1.11 1.06 1.03 1.03 0.96 0.92 0.95 0.89 0.84 0.76 0.52 0.46 0.63 0.64 0.79 0.79 0.67 0.60 0.53 0.46 0.40 0.43 0.44 0.42 0.30 0.37 0.35 0.37 0.40 0.38 0.40 0.51 0.53 0.48 0.62 0.59 0.70 0.96 1.12
0.59 0.61 0.69 0.89 0.97 1.08 1.08 1.08 1.02 0.97 0.96 0.95 0.91 0.91 0.86 0.66 0.34 0.61 0.77 0.76 0.78 0.68 0.57 0.49 0.45 0.38 0.33 0.31 0.40 0.33 0.37 0.39 0.38 0.42 0.46 0.42 0.51 0.52 0.55 0.57 0.64 0.66 0.89 0.91 1.06
0.57 0.60 0.61 0.77 0.86 1.07 1.03 1.00 1.02 0.98 0.96 0.91 0.86 0.89 0.70 0.53 0.44 0.60 0.65 0.68 0.64 0.51 0.41 0.39 0.34 0.30 0.24 0.25 0.27 0.28 0.31 0.36 0.39 0.41 0.43 0.44 0.44 0.45 0.47 0.60 0.72 0.76 0.85 0.87 1.01
0.55 0.54 0.56 0.70 0.79 0.96 0.99 0.94 0.95 0.93 0.96 0.88 0.84 0.83 0.61 0.38 0.47 0.54 0.56 0.53 0.47 0.46 0.42 0.40 0.34 0.34 0.28 0.26 0.25 0.26 0.25 0.27 0.31 0.35 0.42 0.38 0.36 0.42 0.46 0.61 0.70 0.76 0.72 0.89 0.95
0.55 0.52 0.53 0.70 0.74 0.87 0.94 0.95 0.90 0.97 0.88 0.81 0.82 0.76 0.52 0.43 0.47 0.49 0.47 0.46 0.51 0.46 0.39 0.42 0.42 0.36 0.35 0.29 0.35 0.32 0.27 0.25 0.25 0.31 0.35 0.41 0.32 0.34 0.44 0.60 0.63 0.68 0.74 0.84 0.90
0.58 0.51 0.50 0.64 0.89 0.92 0.92 0.99 0.92 0.86 0.76 0.72 0.84 0.67 0.43 0.51 0.48 0.45 0.46 0.46 0.53 0.53 0.48 0.50 0.49 0.40 0.37 0.41 0.36 0.31 0.31 0.24 0.22 0.24 0.31 0.35 0.25 0.29 0.39 0.54 0.54 0.63 0.72 0.72 0.87
0.59 0.50 0.47 0.55 0.67 0.85 0.98 0.85 0.81 0.85 0.76 0.80 0.70 0.55 0.37 0.53 0.40 0.44 0.47 0.45 0.50 0.53 0.52 0.52 0.48 0.41 0.42 0.31 0.27 0.30 0.21 0.24 0.24 0.24 0.31 0.34 0.28 0.34 0.47 0.50 0.47 0.56 0.62 0.68 0.83
0.60 0.47 0.57 0.58 0.68 0.77 0.83 0.93 0.88 0.81 0.79 0.73 0.59 0.39 0.43 0.37 0.47 0.49 0.54 0.50 0.42 0.43 0.42 0.40 0.40 0.34 0.35 0.31 0.19 0.25 0.26 0.23 0.22 0.21 0.31 0.33 0.33 0.43 0.49 0.48 0.48 0.51 0.63 0.69 0.83
0.64 0.51 0.69 0.95 0.77 0.81 0.85 0.79 0.61 0.54 0.59 0.39 0.37 0.39 0.40 0.47 0.54 0.51 0.57 0.53 0.48 0.42 0.32 0.40 0.33 0.25 0.31 0.35 0.35 0.31 0.26 0.23 0.28 0.22 0.35 0.30 0.33 0.36 0.45 0.46 0.49 0.54 0.62 0.65 0.82
0.65 0.56 0.69 0.81 0.91 0.89 0.89 0.58 0.60 0.61 0.40 0.45 0.42 0.45 0.51 0.54 0.43 0.51 0.61 0.48 0.45 0.37 0.43 0.39 0.30 0.36 0.41 0.38 0.34 0.33 0.24 0.23 0.27 0.35 0.33 0.32 0.33 0.35 0.38 0.39 0.45 0.55 0.67 0.73 0.81
0.59 0.54 0.60 0.69 0.80 0.88 0.74 0.67 0.66 0.63 0.37 0.36 0.42 0.47 0.51 0.55 0.46 0.49 0.58 0.54 0.46 0.42 0.41 0.34 0.36 0.43 0.39 0.31 0.26 0.27 0.25 0.29 0.35 0.34 0.38 0.31 0.29 0.33 0.41 0.46 0.49 0.59 0.71 0.77 0.87
0.56 0.60 0.68 0.75 0.62 0.68 0.65 0.84 0.69 0.63 0.25 0.25 0.36 0.47 0.52 0.54 0.47 0.64 0.65 0.57 0.47 0.37 0.40 0.36 0.42 0.37 0.33 0.28 0.29 0.24 0.34 0.38 0.37 0.30 0.24 0.32 0.21 0.37 0.45 0.45 0.51 0.62 0.71 0.79 0.91
0.55 0.68 0.88 0.75 0.73 0.62 0.79 0.81 0.72 0.52 0.12 0.27 0.38 0.57 0.54 0.50 0.53 0.57 0.71 0.59 0.40 0.38 0.38 0.32 0.34 0.33 0.32 0.31 0.34 0.31 0.40 0.38 0.43 0.37 0.34 0.31 0.37 0.43 0.52 0.44 0.51 0.65 0.70 0.83 0.95
0.56 0.70 0.89 0.68 0.75 0.80 0.83 0.72 0.55 0.20 0.11 0.23 0.40 0.40 0.42 0.49 0.51 0.59 0.60 0.63 0.55 0.41 0.42 0.37 0.47 0.44 0.41 0.43 0.42 0.45 0.42 0.45 0.47 0.41 0.25 0.39 0.38 0.38 0.43 0.48 0.59 0.66 0.77 0.86 0.97
0.57 0.69 0.77 0.73 0.64 0.84 0.80 0.55 0.21 0.13 0.21 0.25 0.33 0.38 0.40 0.39 0.43 0.48 0.48 0.47 0.39 0.31 0.29 0.37 0.39 0.47 0.52 0.42 0.49 0.47 0.41 0.29 0.27 0.28 0.22 0.40 0.36 0.40 0.50 0.55 0.64 0.67 0.70 0.89 0.99
0.54 0.66 0.71 0.75 0.90 0.84 0.67 0.33 0.14 0.18 0.22 0.34 0.36 0.36 0.34 0.39 0.39 0.42 0.44 0.42 0.49 0.42 0.36 0.29 0.27 0.40 0.51 0.49 0.44 0.44 0.41 0.30 0.23 0.24 0.26 0.41 0.32 0.40 0.59 0.65 0.72 0.71 0.74 0.86 0.89
0.63 0.68 0.67 0.79 0.88 0.83 0.48 0.22 0.19 0.21 0.29 0.32 0.33 0.30 0.31 0.35 0.35 0.37 0.39 0.41 0.45 0.47 0.37 0.35 0.31 0.49 0.53 0.54 0.51 0.43 0.34 0.41 0.35 0.34 0.29 0.34 0.43 0.53 0.53 0.61 0.71 0.72 0.70 0.75 0.83
0.65 0.63 0.63 0.87 0.90 0.71 0.35 0.25 0.24 0.30 0.36 0.33 0.24 0.29 0.25 0.29 0.31 0.33 0.36 0.46 0.45 0.50 0.54 0.42 0.29 0.43 0.47 0.53 0.53 0.43 0.43 0.33 0.34 0.23 0.23 0.32 0.36 0.37 0.46 0.50 0.62 0.66 0.67 0.68 0.73
0.59 0.47 0.70 0.89 0.81 0.52 0.26 0.26 0.27 0.35 0.38 0.30 0.26 0.24 0.26 0.27 0.31 0.31 0.33 0.43 0.47 0.48 0.52 0.48 0.39 0.35 0.43 0.40 0.38 0.38 0.33 0.31 0.31 0.27 0.21 0.21 0.29 0.44 0.44 0.50 0.51 0.56 0.60 0.62 0.64
0.52 0.34 0.73 0.84 0.49 0.36 0.26 0.30 0.33 0.33 0.37 0.32 0.31 0.28 0.27 0.29 0.28 0.30 0.32 0.38 0.49 0.51 0.42 0.47 0.41 0.31 0.34 0.44 0.44 0.43 0.35 0.32 0.27 0.21 0.24 0.23 0.27 0.45 0.46 0.47 0.48 0.49 0.52 0.56 0.58
0.50 0.55 0.79 0.74 0.34 0.26 0.30 0.30 0.32 0.30 0.29 0.29 0.28 0.29 0.32 0.28 0.26 0.30 0.31 0.43 0.47 0.45 0.42 0.45 0.37 0.28 0.28 0.34 0.37 0.32 0.32 0.32 0.31 0.32 0.23 0.20 0.25 0.42 0.44 0.42 0.44 0.44 0.46 0.49 0.50
0.61 0.45 0.54 0.50 0.39 0.29 0.26 0.25 0.23 0.34 0.30 0.30 0.29 0.31 0.28 0.25 0.30 0.26 0.29 0.35 0.42 0.41 0.42 0.43 0.35 0.32 0.26 0.28 0.31 0.27 0.28 0.28 0.28 0.24 0.23 0.24 0.27 0.34 0.36 0.37 0.40 0.41 0.44 0.45 0.45
0.59 0.45 0.46 0.30 0.28 0.28 0.31 0.28 0.22 0.22 0.30 0.30 0.26 0.28 0.26 0.21 0.24 0.23 0.27 0.30 0.35 0.38 0.38 0.38 0.26 0.29 0.30 0.31 0.31 0.27 0.26 0.27 0.24 0.27 0.24 0.26 0.27 0.32 0.36 0.37 0.39 0.42 0.42 0.41 0.41
0.54 0.42 0.38 0.34 0.30 0.27 0.29 0.27 0.22 0.25 0.27 0.23 0.23 0.28 0.28 0.24 0.25 0.23 0.26 0.27 0.27 0.32 0.31 0.35 0.25 0.27 0.22 0.26 0.26 0.22 0.25 0.26 0.25 0.27 0.27 0.27 0.26 0.36 0.37 0.37 0.36 0.37 0.39 0.38 0.38
0.64 0.55 0.40 0.29 0.26 0.24 0.26 0.29 0.26 0.28 0.29 0.30 0.29 0.28 0.26 0.29 0.34 0.34 0.34 0.34 0.33 0.29 0.25 0.24 0.23 0.21 0.16 0.21 0.19 0.16 0.20 0.21 0.23 0.25 0.25 0.21 0.27 0.32 0.31 0.32 0.33 0.36 0.36 0.33 0.33
Wind_Speed
35 34 33 33 31 30 28 27 26 26 26 26 24 23 23 23 24 24 24 24 25 25 26 26 27 27 29 31 33 31 34 38 40 39 37 36 34 35 34 37 36 31 31 31 35
36 36 35 33 32 31 29 27 26 25 24 25 24 23 23 23 24 24 24 24 24 24 25 26 27 27 30 30 31 34 36 40 37 36 37 38 39 36 35 38 38 36 31 33 36
36 36 35 34 33 32 31 28 27 24 25 23 23 22 22 22 23 20 21 22 22 22 23 24 25 27 30 31 33 36 41 38 37 38 37 38 36 35 35 35 33 38 36 35 34
34 34 35 34 32 31 29 26 25 24 24 24 22 20 21 20 18 16 16 16 18 20 22 24 25 27 27 30 33 39 40 39 40 40 36 38 36 36 36 36 35 37 30 33 36
35 33 32 32 31 31 28 26 24 23 22 21 19 19 20 19 19 16 16 16 18 21 22 23 24 26 29 29 32 37 38 40 40 40 41 39 39 36 37 35 32 34 35 34 38
35 33 31 30 29 29 27 24 22 20 19 18 17 17 17 16 15 15 14 15 16 17 18 20 21 23 27 29 31 32 34 37 40 40 39 39 40 40 36 35 33 33 37 34 34
33 31 29 26 27 25 25 22 20 19 18 16 15 15 15 15 14 12 12 13 14 15 16 16 18 19 19 23 25 28 34 37 39 38 40 35 39 43 36 32 31 34 35 34 31
29 28 25 23 19 22 21 19 17 16 14 14 13 13 13 13 12 11 11 13 13 14 14 14 16 19 20 20 23 25 27 28 31 36 36 37 35 36 36 31 33 32 34 35 33
26 25 24 24 23 23 20 18 15 13 11 10 9 10 12 9 9 10 11 12 13 13 14 15 15 16 15 17 18 20 22 23 25 29 31 34 30 29 29 29 30 30 32 33 32
25 24 22 24 22 22 19 15 12 10 8 8 8 9 9 7 6 8 10 11 11 12 13 14 13 14 13 14 17 12 17 22 21 24 30 31 29 22 26 26 27 28 31 31 31
21 19 15 15 19 20 18 13 11 10 11 8 5 6 5 5 6 7 8 9 10 11 13 10 13 15 16 18 19 16 16 16 16 21 26 29 28 25 23 23 26 27 28 31 31
18 16 16 16 19 18 17 13 11 8 6 8 4 6 5 5 6 6 5 7 7 11 11 10 15 15 13 12 13 14 10 9 8 15 24 25 22 20 21 23 25 25 25 29 30
15 14 17 18 23 19 14 11 10 7 4 4 4 3 2 2 5 5 4 7 10 12 11 11 8 3 6 7 8 9 10 7 7 19 19 19 16 16 17 19 21 22 22 27 28
11 13 14 25 20 18 13 11 10 6 3 3 2 1 2 2 6 5 5 6 8 8 6 3 3 4 4 6 9 6 6 4 19 21 14 18 10 11 14 16 18 20 20 27 28
13 15 21 20 17 17 10 12 7 7 5 6 4 3 3 2 6 4 6 6 6 7 7 8 8 12 11 10 11 7 4 11 14 10 15 11 6 5 7 12 15 14 20 26 26
15 17 24 17 15 14 11 14 7 6 5 5 5 4 3 3 5 6 6 7 9 10 10 10 12 11 9 9 9 6 10 6 7 6 11 8 5 6 4 7 11 10 18 25 25
19 19 21 17 15 14 14 9 7 6 8 7 5 5 4 6 7 6 5 7 7 7 10 9 10 8 7 7 9 6 3 8 7 8 9 6 6 5 1 6 9 14 16 20 21
20 20 19 17 14 13 13 9 8 9 9 8 8 6 6 6 6 8 7 5 7 7 6 6 4 5 5 4 5 7 4 8 9 9 11 11 8 5 4 10 11 13 18 20 18
24 22 17 18 15 13 11 9 9 10 10 10 8 6 7 6 6 6 9 10 8 7 5 6 7 6 8 8 8 9 11 10 12 16 12 10 10 10 12 13 15 15 18 19 15
25 21 17 16 13 10 10 10 10 10 10 7 5 5 7 8 7 7 8 9 6 6 6 7 8 7 7 6 10 12 10 10 10 11 13 13 14 14 13 16 14 12 14 12 11
22 18 16 14 12 10 11 10 11 11 8 5 6 6 8 8 10 9 9 10 9 7 6 6 6 6 7 10 11 11 11 9 8 9 11 12 14 13 14 14 16 15 12 9 7
18 14 15 14 11 10 12 10 11 10 7 6 6 8 9 8 9 10 11 10 10 9 9 10 10 10 10 9 9 8 10 8 6 7 9 12 11 11 13 13 13 12 11 8 6
16 16 14 10 11 13 13 12 11 9 8 8 8 10 8 8 7 8 9 11 11 11 10 9 9 10 7 9 9 9 8 7 6 6 6 5 9 8 8 8 8 7 6 5 3
15 13 12 10 11 13 13 13 13 10 9 9 9 9 9 11 11 10 9 9 10 11 10 8 9 8 10 8 5 6 8 9 6 6 9 10 11 6 5 4 3 3 2 2 4
12 12 12 11 11 13 13 12 12 10 9 9 10 11 10 10 10 11 11 10 10 10 10 10 11 10 10 7 6 5 6 7 7 4 6 8 6 4 4 4 3 4 5 7 9
10 10 10 11 12 13 12 11 11 10 8 9 10 10 11 12 11 11 11 12 12 11 11 11 11 9 8 7 6 6 5 5 6 6 5 6 5 5 5 5 5 5 7 8 10
8 9 9 10 11 11 10 10 10 9 9 9 9 9 11 12 12 13 13 13 12 11 11 11 11 9 9 7 6 6 8 8 7 8 5 4 5 4 5 6 6 6 8 11 13
Wind_Direction
287 288 290 294 281 282 283 284 285 286 288 293 292 290 291 289 284 278 273 270 267 263 263 263 261 259 257 254 251 251 251 251 250 252 254 253 253 246 248 248 246 245 248 231 218
285 284 285 285 276 277 279 279 281 284 287 292 289 288 290 290 287 281 274 269 266 265 262 263 262 260 257 255 250 247 250 251 253 255 254 252 250 251 246 245 243 246 244 229 223
286 283 282 280 278 271 272 274 278 282 286 289 288 287 290 292 287 285 280 268 267 266 265 265 264 263 260 255 251 251 252 256 254 252 255 253 253 250 250 243 249 241 240 224 219
288 287 282 279 279 266 266 270 273 278 283 285 287 282 291 292 289 286 283 273 266 269 267 267 265 262 261 258 256 255 255 255 254 254 257 251 251 250 243 248 246 237 239 229 221
286 286 283 278 274 259 259 265 269 275 280 285 281 283 290 288 284 280 280 277 274 274 272 269 267 266 263 263 261 260 259 256 254 252 251 249 247 247 245 244 244 237 233 227 222
285 284 282 278 274 250 253 259 263 272 277 281 279 284 289 287 289 282 277 279 281 277 274 269 269 271 271 267 264 263 262 258 253 249 247 245 243 241 239 238 238 235 226 226 227
285 282 277 275 273 242 247 250 259 268 272 276 276 286 285 283 295 280 278 283 285 282 281 276 275 273 276 274 270 268 265 259 252 247 243 241 241 235 233 234 233 231 225 223 225
284 281 273 266 264 239 238 241 253 265 268 264 276 281 285 292 286 277 278 284 284 283 284 282 281 279 278 275 276 270 267 262 251 241 236 231 238 229 227 227 230 228 223 224 225
282 278 270 260 257 231 228 238 244 254 256 257 274 284 291 296 283 280 282 287 287 286 287 287 286 279 278 276 274 266 263 255 255 236 227 218 226 226 215 221 227 226 222 221 223
278 273 269 257 225 217 219 218 231 236 244 265 274 289 285 294 298 300 294 291 286 284 284 280 280 279 278 270 267 280 258 257 253 229 216 211 216 211 216 221 225 225 222 222 219
273 262 254 210 203 204 202 211 227 243 243 261 270 297 291 308 314 307 301 299 289 285 281 280 285 268 273 269 264 270 276 267 253 211 205 204 209 219 223 222 223 223 224 221 215
265 249 228 213 197 193 200 222 231 235 237 240 278 280 283 313 319 310 317 312 293 283 284 289 280 272 296 268 252 244 259 245 207 191 184 195 202 216 222 221 218 217 221 216 209
250 230 215 213 193 194 205 215 212 214 232 214 257 285 319 321 330 327 312 330 311 304 282 278 285 278 285 258 217 208 213 232 186 165 185 179 200 209 221 212 209 209 215 209 204
219 200 203 179 186 193 201 207 196 210 212 185 207 129 50 17 356 0 338 338 0 350 337 297 320 251 229 179 165 177 201 155 149 155 161 181 179 199 205 205 209 204 209 201 197
174 171 165 170 178 183 196 186 183 172 162 148 130 103 70 36 23 24 22 37 21 34 53 83 81 111 121 133 140 131 72 146 163 157 134 171 179 162 168 184 196 204 201 193 193
160 158 161 161 165 169 165 158 157 160 136 146 128 108 83 81 41 49 51 63 64 64 88 85 95 103 108 114 130 115 117 97 130 151 128 94 157 107 162 205 193 186 181 187 189
153 152 159 158 158 157 153 154 148 132 137 133 125 115 88 67 56 50 69 70 64 72 85 87 92 96 115 115 119 101 109 116 117 113 121 67 85 95 12 219 192 181 176 176 182
145 147 148 152 146 147 150 145 133 126 128 116 114 107 78 60 64 52 63 83 52 82 85 77 70 70 93 98 100 138 115 107 94 107 116 66 64 86 68 136 156 174 175 172 178
136 136 136 139 135 135 147 138 126 123 123 124 109 96 79 63 49 56 68 67 72 63 63 80 87 90 95 82 75 98 105 96 94 106 94 83 87 90 91 117 132 147 153 168 173
132 126 124 132 135 132 136 126 126 129 124 111 87 69 72 52 55 57 66 54 60 61 82 79 97 100 90 84 96 97 97 103 91 88 89 89 79 84 84 97 123 127 134 159 182
125 117 119 120 123 129 132 121 126 132 122 92 73 81 69 63 54 61 65 77 52 62 79 99 108 111 106 85 76 81 82 78 80 78 88 96 82 74 88 88 99 108 116 135 157
114 112 123 115 112 120 124 120 126 127 115 95 79 70 70 72 63 67 66 61 50 64 79 90 103 112 113 102 96 97 80 79 82 85 76 87 85 88 92 88 94 97 96 94 105
102 107 118 107 106 117 118 117 126 117 95 83 79 68 70 68 75 68 66 65 62 70 82 86 102 118 114 120 109 90 66 64 91 84 70 74 110 107 95 84 76 78 78 80 70
100 103 109 108 105 113 115 118 123 114 97 85 82 74 67 66 68 74 73 69 68 74 78 96 95 101 107 104 99 82 62 61 91 76 72 94 116 88 72 59 43 32 13 336 320
86 96 107 113 115 118 113 118 124 114 99 85 86 75 65 69 71 69 68 72 77 76 83 91 99 104 102 100 101 85 65 57 70 55 100 114 87 56 19 1 344 311 311 316 316
83 96 101 108 114 122 117 123 128 114 98 90 89 76 66 71 67 70 66 70 74 75 84 89 103 107 96 86 89 84 63 66 68 66 98 101 80 57 47 31 16 0 352 340 325
82 94 98 113 121 125 123 119 126 115 103 92 89 84 74 71 72 72 73 75 74 72 78 84 98 97 97 88 96 103 71 77 86 77 68 88 74 45 34 18 2 358 348 340 327